User: anonymous   Login
Location: *
(32.8667°N, 13.1833°E)
Time: 09:08:31
(UTC+00:00)
Language:

Cosmos 332 Rocket - Orbit

View from above orbital plane
View from above orbital plane
View from above satellite
View from above satellite

Ground track
Ground track

The orbit data is extracted from the following two-line orbital elements,

1  4370U 70028B   19266.66984262 +.00000044 +00000-0 +15377-4 0  9993
2  4370 074.0387 308.8515 0015385 011.0368 349.1132 14.60003697132405
Epoch (UTC): 23 September 2019 16:04:34
Eccentricity: 0.0015385
inclination: 74.0387°
perigee height: 682 km
apogee height: 704 km
right ascension of ascending node: 308.8515°
argument of perigee: 11.0368°
revolutions per day: 14.60003697
mean anomaly at epoch: 349.1132°
orbit number at epoch: 13240

The dashed part of the orbit path shows where the satellite is in the earth's shadow,  

DLR